Wind_Speed
17 17 17 16 16 16 16 15 16 16 18 20 22 23 23 23 22 20 19 19 19 19 19 18 16 15 15 16 16 15 13 11 10 10 13 16 17 19 19 19 18 16 16 16 18 19 19 19 19 19 18 17 16 15 15 14 13 13 12 11 11 10 10 9 9 9 9 9 9
17 17 18 18 18 18 17 16 15 15 16 18 20 22 23 23 22 21 20 19 19 19 18 17 16 16 16 16 16 15 14 14 13 14 15 16 18 19 19 18 17 16 16 18 19 20 20 20 20 20 20 20 18 16 14 14 13 12 11 10 10 10 9 9 9 9 9 9 9
16 17 18 19 20 20 20 19 18 16 16 16 17 19 20 22 22 22 22 21 20 19 18 18 17 16 16 16 16 16 16 16 16 16 16 17 18 18 18 17 17 17 17 19 20 21 21 20 19 20 21 22 20 17 15 15 14 12 10 10 10 10 9 9 9 9 9 9 9
16 17 18 20 21 22 23 22 21 19 17 16 16 17 18 20 21 22 22 22 21 20 19 18 17 16 16 16 17 17 17 17 17 17 17 18 19 19 19 18 17 18 19 21 21 22 21 20 20 21 22 21 18 16 14 14 13 12 11 11 11 10 10 10 9 9 9 9 9
14 16 17 19 21 22 23 24 23 22 20 18 17 17 18 18 19 20 20 20 20 20 19 18 17 17 16 16 16 17 17 18 19 19 19 19 19 19 19 19 19 20 21 22 22 22 21 20 20 20 19 18 15 14 13 13 12 11 11 11 11 11 10 9 8 8 9 9 10
9 11 13 14 16 18 21 22 23 23 22 21 20 19 18 18 18 19 19 20 20 20 20 19 19 19 18 18 16 16 16 17 19 20 20 20 21 22 23 23 23 23 23 23 22 22 21 20 19 18 16 15 14 13 12 12 12 11 11 11 11 11 10 9 9 10 10 11 10
4 6 8 9 10 13 16 18 21 22 23 22 21 20 19 18 18 18 18 19 20 21 21 21 21 21 22 21 20 17 15 15 17 19 20 20 20 21 23 24 25 26 26 25 24 23 22 21 19 17 16 14 13 12 12 12 11 11 11 11 11 11 10 10 11 11 11 11 10
4 4 5 6 7 9 11 14 16 19 21 21 21 21 20 19 18 18 18 19 20 21 22 22 22 23 23 23 23 21 19 17 17 19 20 21 21 21 21 23 24 26 27 27 25 24 23 22 20 18 16 14 13 13 13 12 12 11 10 10 11 10 10 10 10 10 10 10 10
7 6 6 6 6 7 8 10 12 15 17 18 18 18 18 19 19 19 20 20 21 22 22 23 23 23 23 24 24 23 22 22 22 23 24 24 23 23 24 25 26 27 26 25 24 23 22 21 20 17 16 14 14 14 13 13 11 10 10 10 10 10 9 8 8 8 9 9 10
8 8 8 8 8 8 8 9 10 12 13 15 15 16 17 19 20 21 22 22 23 23 24 24 24 24 24 24 24 24 23 23 24 26 27 28 27 27 27 27 27 26 24 23 21 20 20 19 17 16 15 15 15 15 14 13 11 10 10 10 10 9 8 8 8 8 8 8 9
8 8 9 9 9 10 10 10 10 11 12 13 14 15 16 18 20 22 23 25 26 26 27 27 27 27 26 26 25 25 24 25 25 26 26 27 27 27 27 26 25 23 22 20 19 18 17 17 16 16 16 16 16 15 14 13 12 12 11 11 10 8 8 8 8 7 7 8 8
7 8 8 8 9 10 10 11 11 12 12 13 14 15 16 17 19 21 23 25 27 28 29 30 31 30 30 29 27 26 26 25 26 26 26 26 26 25 24 23 21 19 18 17 17 16 16 16 16 16 16 16 16 16 15 14 13 13 12 11 10 9 8 7 7 6 6 6 6
9 8 8 8 8 9 9 10 11 12 13 13 14 14 15 16 18 19 21 23 25 26 28 29 30 31 31 30 29 28 27 26 26 26 26 26 25 23 22 20 18 17 16 15 15 15 15 16 17 17 17 17 17 16 16 15 14 14 13 12 11 10 9 8 6 5 5 5 5
11 10 9 9 9 9 9 9 10 11 12 13 13 14 14 15 16 18 20 21 22 24 25 26 27 28 28 28 28 27 26 26 25 25 25 24 23 22 20 19 18 17 16 16 16 15 16 17 17 18 18 18 18 17 16 15 14 14 14 13 12 11 11 9 6 5 4 4 5
12 12 11 11 11 10 10 9 9 10 11 12 13 13 14 15 16 17 18 20 21 22 23 23 23 23 22 22 22 22 22 22 22 22 22 21 21 20 20 19 19 18 18 17 17 17 17 17 17 18 18 18 18 16 15 14 14 13 13 12 12 11 10 9 7 6 5 4 5
14 13 13 12 12 12 12 11 11 11 11 11 12 13 14 14 15 16 18 19 20 21 21 21 20 19 17 17 16 16 16 17 18 18 19 19 19 20 20 19 19 19 18 17 17 17 17 17 17 18 18 18 17 16 15 14 13 12 11 11 10 10 9 8 7 6 6 6 6
16 15 14 13 13 13 13 13 13 13 12 12 12 13 13 14 15 16 17 18 19 20 20 20 18 17 15 14 14 13 14 15 16 17 18 18 19 19 19 19 18 18 17 17 17 17 17 17 17 17 18 18 17 16 15 13 12 11 10 10 9 9 9 9 9 8 8 8 9
17 16 15 14 14 14 14 14 14 14 14 13 13 13 14 15 16 16 17 18 19 19 19 19 18 16 15 14 14 14 15 15 16 17 18 18 18 18 18 18 17 17 17 17 17 17 17 17 17 17 18 18 18 17 15 14 12 11 10 10 10 10 10 10 10 11 11 11 12
19 18 17 16 15 14 14 14 14 14 15 15 15 15 15 15 16 17 18 18 19 19 19 18 18 17 16 16 16 16 17 17 17 18 18 18 18 17 17 17 16 16 16 16 16 16 16 16 16 17 18 18 18 17 15 14 13 12 11 11 11 11 11 12 13 14 14 14 14
21 20 19 17 16 15 14 14 14 14 15 15 16 16 16 16 17 18 19 19 19 19 19 19 18 18 18 18 18 18 19 19 19 18 18 18 17 17 16 16 16 16 16 16 16 15 15 15 16 16 17 18 17 16 15 14 13 12 11 11 11 12 13 14 15 16 16 15 14
22 22 20 19 17 16 15 14 14 15 15 16 16 17 17 17 18 18 19 20 20 20 20 19 19 19 19 19 19 19 19 19 19 18 18 17 17 17 16 16 16 16 16 16 16 15 15 15 15 16 17 17 17 16 15 14 13 12 12 12 13 14 15 15 16 16 16 14 12
23 22 22 21 19 18 16 15 15 15 16 16 17 17 18 18 18 19 19 20 20 21 21 20 20 20 20 20 20 19 19 18 18 18 18 17 17 16 16 16 16 16 16 16 16 16 15 15 15 16 17 17 17 16 15 14 13 13 13 13 14 14 15 16 16 16 14 12 10
23 22 22 21 20 19 18 16 16 16 16 16 17 18 18 19 19 19 20 20 21 21 21 21 21 20 20 19 19 18 18 17 17 17 17 17 16 16 15 15 16 16 16 16 16 16 16 16 16 16 17 17 17 16 15 14 14 13 14 14 15 15 16 16 15 13 12 11 10
22 22 22 21 21 20 19 17 16 16 16 16 17 18 19 19 20 20 20 21 22 22 22 22 21 20 19 18 18 17 17 17 17 17 17 17 16 15 15 15 16 16 16 16 16 16 16 16 17 17 17 17 17 17 16 15 15 15 15 15 16 16 15 13 11 9 9 10 10
23 22 22 21 21 20 19 18 17 16 16 16 17 18 18 19 20 20 21 21 22 23 23 22 21 20 19 18 18 17 17 17 17 17 17 17 16 16 16 16 16 16 16 16 16 16 16 17 17 17 18 17 17 17 17 17 16 16 16 15 15 13 12 9 7 7 8 9 10
23 23 22 21 21 21 20 19 18 17 17 16 17 18 18 19 20 20 21 22 23 24 23 22 21 20 20 19 19 18 18 18 18 18 17 17 17 17 17 17 17 17 17 17 17 17 17 18 18 18 18 18 17 17 17 17 17 17 16 14 13 11 9 8 7 7 8 10 10
24 23 23 22 21 21 20 19 19 18 17 17 17 18 18 19 19 20 22 23 24 24 24 23 22 21 21 20 20 19 19 18 18 18 18 18 18 18 18 18 18 18 18 18 18 19 19 19 18 18 18 17 17 17 17 17 17 16 15 13 11 9 9 9 8 8 9 10 11
25 24 24 23 22 22 21 20 19 18 17 17 17 18 18 19 20 21 22 24 25 26 25 24 23 22 22 21 21 20 20 19 19 19 19 19 19 19 19 19 20 20 19 19 20 20 20 20 19 18 18 17 17 17 17 16 16 15 13 12 10 10 9 9 9 10 10 10 10
25 25 24 24 23 23 21 20 19 18 18 17 17 18 19 19 20 21 23 24 26 27 27 26 25 24 23 23 22 21 21 20 20 20 20 20 20 20 20 21 21 21 21 21 21 21 21 21 20 19 18 18 17 17 17 16 15 14 13 12 11 11 11 11 10 11 11 10 9
26 25 25 25 24 24 23 21 20 18 18 17 17 18 19 20 21 22 23 25 27 28 28 28 27 26 25 24 23 22 22 22 21 21 21 22 22 22 22 22 22 22 22 22 22 22 22 22 21 20 19 19 18 17 16 16 15 14 12 12 12 12 12 12 12 12 11 10 9
26 26 26 25 25 25 24 22 20 19 18 17 18 19 20 21 22 23 24 26 27 29 29 29 28 27 27 26 24 24 23 23 23 23 23 23 23 23 23 23 23 23 23 23 23 23 22 22 21 20 19 18 16 16 16 15 15 14 13 12 12 12 12 13 13 12 11 10 9
27 27 27 26 26 26 25 23 21 19 18 18 18 19 20 22 23 23 24 25 27 28 29 30 29 28 28 27 26 25 25 24 24 24 24 24 24 24 24 24 24 24 24 23 23 23 22 21 20 19 17 16 15 15 15 15 15 14 13 13 12 12 12 12 13 12 10 9 8
28 28 28 28 27 27 26 24 23 21 19 18 19 20 21 22 23 24 24 25 27 29 30 30 30 30 29 28 27 27 26 26 25 25 25 25 25 25 24 24 24 24 24 24 23 23 22 20 19 17 15 15 15 15 15 15 14 14 13 13 12 12 12 12 12 11 10 9 8
29 29 29 29 29 28 27 26 24 22 21 20 20 20 21 22 23 24 25 26 27 28 30 31 31 31 30 30 29 28 27 26 25 24 24 24 25 25 25 25 25 24 24 24 23 23 21 20 17 16 15 14 14 15 15 15 14 14 14 13 13 12 11 11 11 10 9 9 8
28 29 30 30 30 29 28 27 26 24 23 22 21 21 22 22 23 24 25 26 27 28 30 31 31 31 30 30 29 29 28 26 25 24 24 24 25 25 26 26 25 24 23 23 22 22 20 18 16 15 14 14 14 15 15 15 15 14 14 13 13 12 12 11 11 10 10 9 9
28 29 30 31 31 30 29 28 27 26 25 24 23 23 22 22 23 24 25 25 26 27 29 30 31 31 31 30 30 29 28 27 26 25 24 24 24 25 26 25 24 23 22 22 21 20 19 17 16 15 15 14 15 15 16 16 15 15 14 14 13 12 12 12 11 11 10 10 10
28 28 29 30 31 31 30 29 28 28 27 27 25 24 23 23 23 24 24 24 25 27 28 30 31 31 31 31 31 31 30 28 27 25 24 24 24 24 24 24 23 22 21 20 20 19 19 18 17 16 15 15 16 16 16 16 16 15 15 14 13 13 13 12 12 11 11 11 11
29 29 29 29 30 31 30 30 29 28 28 28 27 26 24 23 23 24 24 24 25 26 28 29 30 32 33 33 32 32 31 29 28 26 25 24 23 23 23 23 22 20 19 19 19 19 19 18 17 16 15 16 17 17 17 16 16 16 15 14 14 14 13 13 12 12 12 12 12
30 29 29 29 30 30 30 30 29 29 29 29 29 27 26 24 24 24 24 25 26 27 28 29 30 32 33 33 32 31 31 30 29 27 26 25 23 22 21 21 20 19 18 18 19 19 19 19 17 16 16 17 18 18 17 17 16 16 15 15 15 14 14 13 12 12 12 13 13
31 30 30 29 29 29 29 30 30 30 30 29 29 29 28 26 25 24 24 25 26 27 28 28 30 31 31 31 31 31 31 30 30 29 27 25 24 22 21 20 19 18 17 18 19 20 20 19 18 17 17 18 18 18 17 17 16 16 16 16 15 15 14 13 13 13 13 13 14
31 31 30 29 29 29 29 29 30 30 30 29 30 29 28 27 25 24 24 25 26 27 28 28 29 30 30 30 30 30 30 30 30 30 28 27 25 23 22 21 19 18 17 18 19 20 21 20 18 17 18 19 19 18 18 17 17 16 16 16 16 15 15 14 14 14 14 14 14
Wind_Direction
249 250 251 251 252 253 254 256 259 259 259 259 260 260 259 258 256 253 249 241 235 231 229 229 231 234 237 239 238 233 228 226 228 234 235 232 225 221 219 220 222 228 240 253 262 268 274 278 279 278 277 275 273 272 272 273 276 277 276 271 266 262 259 258 257 257 257 256 256
250 251 251 251 251 252 253 255 258 261 262 262 261 261 260 259 257 255 253 248 243 238 236 235 234 233 230 228 222 217 214 216 219 224 229 230 225 221 220 223 227 234 243 253 262 269 274 277 277 276 275 274 274 274 277 279 281 280 274 266 260 257 257 257 256 257 257 256 255
249 251 253 254 254 254 254 254 256 258 261 264 265 264 263 260 258 256 255 253 249 244 239 236 233 229 225 221 215 210 209 211 215 221 228 234 232 230 230 232 236 241 247 254 261 267 271 272 271 270 268 266 267 270 275 278 279 275 266 256 253 252 253 254 255 256 255 254 252
250 251 253 256 257 258 257 257 258 260 264 268 271 271 268 264 261 259 258 256 251 245 238 233 229 223 218 214 210 207 206 209 215 223 232 237 238 238 239 241 243 246 251 256 262 266 267 266 263 261 259 259 261 265 270 273 273 268 259 253 251 253 254 256 255 255 255 253 251
252 252 253 255 257 259 260 260 260 261 265 269 271 271 269 266 263 261 258 254 248 242 237 231 225 218 214 212 211 212 213 217 223 229 233 235 237 238 240 242 244 248 253 259 262 263 262 258 255 253 253 256 261 266 268 267 264 259 253 251 251 253 254 254 250 249 250 252 253
253 253 253 255 257 258 259 260 261 262 263 265 266 266 264 262 260 257 253 249 245 240 234 228 223 219 216 215 216 221 226 230 232 233 234 234 234 235 237 240 243 249 255 260 261 259 256 252 250 251 254 259 264 265 263 259 254 248 244 241 244 248 248 245 242 243 246 252 255
270 264 261 260 261 260 260 261 262 262 263 263 262 261 259 257 255 252 249 245 242 237 232 227 224 222 220 220 221 224 230 238 240 239 235 231 228 227 229 233 239 247 253 257 256 253 250 249 250 253 257 261 262 259 254 249 243 239 235 232 237 241 242 242 244 245 248 252 254
329 313 297 285 276 270 266 264 263 262 262 262 262 261 259 257 254 251 247 243 240 236 232 229 227 227 226 226 226 227 229 233 238 238 234 230 226 224 226 229 235 242 247 250 249 248 247 249 250 251 252 254 252 248 243 238 234 231 230 230 235 239 242 246 250 251 251 251 251
343 337 329 317 302 289 279 271 264 261 261 262 263 263 262 259 256 253 249 246 243 240 237 235 234 235 235 235 234 233 231 230 231 230 228 226 225 226 230 234 237 240 241 242 243 244 245 247 247 246 245 243 239 235 233 230 226 223 223 228 235 238 241 247 253 255 253 250 247
345 340 334 328 320 311 301 289 278 270 265 264 265 266 264 260 257 254 252 250 249 247 245 244 244 244 244 244 243 241 237 233 229 227 225 224 225 227 230 234 236 237 237 237 239 241 242 244 242 239 235 231 227 225 224 222 218 215 217 223 231 236 239 242 248 251 251 249 246
340 337 334 330 326 321 314 307 299 288 279 274 273 271 268 264 259 256 253 252 251 251 251 251 251 251 251 251 250 248 245 240 235 230 228 227 227 229 231 233 233 233 233 235 237 239 239 239 237 232 227 223 219 217 215 213 210 210 212 218 224 229 234 239 243 245 246 247 246
327 328 327 326 323 319 314 310 306 300 293 288 285 281 277 272 268 263 258 254 252 252 253 254 254 255 255 255 254 253 249 245 240 236 234 233 234 234 233 231 230 229 231 234 236 237 237 234 232 229 225 220 215 211 208 206 206 207 211 216 220 224 227 232 235 238 243 251 255
317 316 317 317 316 313 310 307 304 300 296 293 290 287 284 281 277 271 265 260 257 256 255 255 255 256 256 257 256 255 252 248 244 241 239 240 239 237 233 229 228 229 232 235 237 237 234 231 230 229 227 222 215 209 206 205 206 208 212 217 223 226 228 227 227 233 246 264 280
314 311 310 309 308 308 307 305 301 296 293 290 287 286 285 283 281 277 273 269 266 264 261 259 259 258 258 258 257 255 253 250 247 245 243 242 240 236 232 231 232 235 237 239 238 235 231 229 230 231 230 224 217 211 208 208 209 212 216 222 227 231 232 231 232 239 257 282 297
318 313 309 306 305 305 306 306 304 300 294 289 286 284 283 283 282 280 277 275 273 271 269 266 264 263 261 259 256 254 252 249 246 243 241 238 236 234 233 234 237 239 239 238 234 229 226 226 229 232 231 227 221 216 213 212 213 217 222 227 232 235 237 238 242 249 263 280 289
326 318 312 307 304 303 304 306 306 305 301 295 290 286 284 284 283 281 278 275 274 272 271 269 268 266 263 258 253 248 245 242 239 236 234 232 232 233 235 237 239 239 237 232 226 222 221 224 228 230 229 226 223 220 218 216 217 220 225 230 236 240 243 247 253 261 270 278 282
335 326 318 310 305 303 302 303 304 305 303 300 296 290 287 285 283 281 277 274 272 270 268 267 266 263 259 253 247 240 236 233 231 231 231 232 234 236 238 238 238 235 231 225 221 219 220 222 225 225 225 223 223 222 221 220 220 223 228 233 240 247 253 259 266 273 280 284 285
341 334 326 316 308 303 301 301 301 301 301 300 297 293 289 286 282 279 276 272 268 266 263 261 258 256 251 247 242 239 235 233 233 234 235 237 239 239 239 237 234 229 225 221 219 220 222 223 222 220 218 219 221 222 223 223 225 229 234 241 248 255 262 269 275 280 284 285 285
345 340 333 324 314 305 299 297 297 297 297 296 294 292 289 286 282 278 274 269 265 261 257 254 250 248 245 244 242 242 241 240 240 242 243 243 242 240 236 232 228 224 220 220 221 223 225 225 222 219 217 218 220 223 226 228 232 236 241 247 254 261 268 274 279 282 284 284 283
348 344 339 331 321 310 301 294 292 291 291 290 289 288 286 284 281 276 271 267 262 256 251 247 243 242 242 243 243 244 245 245 246 246 246 245 241 237 232 227 223 220 219 220 222 223 224 224 224 222 221 222 224 227 230 233 236 241 246 252 260 267 273 278 282 284 285 284 281
348 345 340 335 327 317 306 297 290 287 286 285 284 284 283 282 279 275 270 264 258 252 246 242 240 241 242 244 244 245 246 247 247 246 244 242 239 234 230 225 221 219 220 221 222 222 222 222 224 224 226 227 229 231 233 236 239 244 251 259 266 273 278 282 285 285 282 278 272
347 344 340 336 330 322 313 302 293 286 283 282 281 281 280 279 277 273 268 262 254 247 242 240 240 242 244 245 246 246 246 246 245 243 242 239 236 233 229 225 222 220 221 222 222 222 222 223 224 227 229 231 233 234 237 240 244 251 258 265 271 277 281 284 284 280 273 263 252
345 342 338 335 331 325 318 308 298 289 283 281 280 279 278 277 275 272 266 257 249 243 240 240 242 244 245 247 247 246 245 244 243 241 240 238 235 231 228 225 223 223 223 223 224 224 223 224 226 229 231 234 236 239 243 248 253 259 265 271 276 281 284 284 281 272 258 243 232
344 340 337 334 331 327 321 314 304 294 286 282 281 279 278 277 274 269 262 253 245 240 239 241 243 244 245 245 245 245 244 242 241 239 238 236 232 229 226 224 223 224 225 226 226 226 226 226 227 230 233 236 240 244 249 254 259 264 270 276 281 285 286 283 274 258 240 227 221
343 340 336 333 330 326 322 316 308 299 291 285 282 280 278 276 273 267 260 251 244 240 239 241 242 243 243 243 243 242 242 241 240 238 236 233 229 226 224 223 222 223 225 226 226 227 228 229 230 233 236 239 242 246 251 256 261 266 271 277 281 283 282 274 260 241 226 219 216
342 339 336 333 329 326 322 318 311 303 295 288 283 280 278 275 272 266 259 250 243 240 239 240 241 241 241 241 241 240 239 238 238 237 235 231 227 224 222 221 221 221 223 224 225 227 228 230 233 235 238 241 245 249 254 259 263 267 271 275 276 273 267 258 247 233 223 217 215
340 338 335 332 328 325 322 318 313 306 298 290 284 280 277 274 270 265 257 249 243 240 239 239 239 239 240 240 238 237 236 236 235 234 233 230 227 223 220 220 220 220 222 224 225 227 229 231 233 237 240 244 248 252 257 261 264 266 268 270 266 257 247 244 239 231 226 223 220
338 337 334 331 328 325 322 319 314 308 301 293 287 281 277 273 269 263 255 248 242 239 237 237 237 238 238 237 236 236 235 234 233 231 230 228 227 224 222 220 220 221 223 225 227 229 230 232 234 236 240 245 250 254 256 258 259 259 260 260 252 240 232 231 228 225 226 229 228
336 335 333 331 328 325 322 320 315 310 304 296 288 282 276 271 267 261 254 247 241 237 236 235 236 236 235 234 234 234 233 232 231 229 227 225 224 224 223 223 222 223 224 226 228 230 232 233 236 238 240 244 248 251 252 253 252 252 251 248 238 229 225 224 223 222 224 228 230
334 333 332 330 327 325 323 320 317 313 306 297 288 280 274 268 264 258 252 246 240 237 236 235 235 234 232 232 231 230 229 229 228 226 224 223 222 222 223 223 223 223 224 226 228 230 232 234 237 240 243 245 247 248 248 247 247 246 244 239 232 227 224 223 222 222 222 224 225
332 332 330 328 326 324 322 320 318 313 306 297 288 279 272 265 261 257 252 246 241 238 236 235 233 232 232 231 230 228 227 226 225 223 222 221 221 221 222 222 222 223 224 226 228 230 233 236 240 242 244 245 244 243 242 241 242 241 239 235 231 228 226 224 223 222 222 221 220
331 330 329 327 324 322 320 319 316 312 306 297 287 278 271 265 261 258 254 248 242 237 234 232 231 231 230 229 228 227 227 226 224 223 221 220 221 221 222 222 222 223 225 227 230 233 236 240 243 244 243 242 238 236 236 236 237 236 233 229 228 227 225 222 221 221 220 219 218
328 328 327 326 323 321 319 317 314 310 304 296 286 278 271 266 263 259 255 249 242 237 233 231 230 229 228 227 226 226 226 227 226 224 222 221 221 222 223 224 224 224 226 229 233 237 240 243 243 242 238 234 230 229 231 233 233 231 227 224 223 221 218 216 216 217 217 216 215
326 326 325 324 322 320 317 315 312 308 301 294 286 278 272 267 262 257 253 248 243 238 234 232 231 230 230 229 227 226 226 227 227 226 223 221 221 222 223 225 226 227 228 231 235 239 242 242 239 235 231 227 225 225 227 229 229 227 224 221 218 215 212 211 212 213 213 212 211
324 323 323 322 321 319 317 314 310 305 299 291 284 278 272 266 260 256 253 249 245 240 236 234 233 232 231 230 229 228 227 227 228 227 225 222 221 221 224 227 228 230 231 234 238 241 241 238 233 228 225 222 222 224 226 226 226 224 221 218 214 211 209 208 209 209 208 206 203
321 321 320 319 319 317 316 313 309 303 297 289 283 277 271 266 261 258 254 250 245 240 237 234 233 231 229 229 229 229 229 229 229 228 226 223 222 222 225 228 231 232 234 236 239 240 238 233 227 223 221 220 221 223 225 225 224 221 218 215 211 208 207 206 206 206 203 199 195
320 319 318 317 316 315 314 312 308 302 295 289 283 277 271 266 263 259 254 248 243 239 237 235 233 231 230 230 230 230 231 231 230 229 227 225 224 224 227 231 233 235 236 238 239 237 234 229 224 220 218 219 221 223 224 224 222 219 215 212 210 207 206 205 205 203 198 191 188
318 317 316 314 313 313 312 310 306 300 294 288 284 278 273 268 263 258 253 246 240 238 236 235 234 233 232 232 232 233 233 232 231 230 229 227 227 227 230 233 236 237 237 237 235 233 230 226 223 219 217 218 221 222 222 221 219 216 214 211 209 207 205 203 202 199 193 186 183
317 316 315 313 311 310 310 308 304 299 293 289 284 280 275 269 263 258 253 247 242 239 237 236 235 235 235 234 233 233 233 233 232 231 230 229 229 230 232 234 237 238 236 234 231 228 225 223 220 218 218 220 221 221 219 218 216 214 212 211 208 205 203 202 200 196 190 184 180
316 315 313 311 310 308 307 304 301 298 294 289 284 280 276 270 265 261 256 250 245 242 239 237 237 237 236 235 233 233 233 234 234 233 231 231 231 231 232 234 236 237 235 231 227 224 222 220 218 217 219 221 221 219 217 216 214 213 212 211 208 203 200 199 198 194 189 184 180
314 313 312 310 308 306 304 301 299 297 294 289 284 281 278 274 269 263 257 251 246 243 240 239 238 237 236 235 234 233 234 234 235 234 232 231 230 230 230 232 235 236 234 229 224 221 220 219 216 216 218 220 218 216 215 214 212 211 211 210 205 201 198 197 195 193 189 186 184
Height
801 801 801 801 801 802 802 802 802 802 801 801 801 800 800 800 800 799 799 799 799 798 798 797 797 797 798 799 801 802 804 806 806 808 810 812 813 814 814 814 813 814 815 816 816 816 816 816 815 814 814 814 814 814 813 813 812 812 812 812 812 812 812 812 812 812 812 812 812
801 801 801 801 801 801 801 801 801 801 801 800 800 799 799 799 799 798 798 798 798 798 798 797 797 797 797 798 799 800 802 804 805 807 810 811 812 813 812 811 811 812 813 814 815 815 814 814 814 813 813 812 812 811 811 810 810 811 811 811 811 811 811 811 811 811 811 811 811
800 800 800 800 800 800 799 799 799 799 799 799 799 799 798 798 798 797 797 797 797 797 797 796 796 796 797 798 798 799 801 803 805 806 808 810 811 811 810 809 810 811 812 813 813 813 813 813 813 813 813 812 811 810 809 809 809 809 809 810 810 810 810 809 809 809 809 809 809
799 799 799 799 798 798 798 798 798 798 798 798 798 798 797 797 797 796 796 796 796 796 796 796 796 796 796 797 798 798 799 801 803 805 806 808 808 808 808 808 808 809 810 811 811 812 812 812 812 813 813 811 810 808 807 807 807 808 808 808 808 808 808 808 808 808 808 808 808
797 797 797 797 797 797 797 797 797 797 797 797 797 796 796 796 795 795 795 795 795 795 795 795 795 796 796 796 797 798 798 799 801 803 804 806 806 806 806 806 807 807 808 809 810 810 811 811 811 811 810 809 807 806 806 806 806 806 806 807 807 807 807 807 807 807 807 807 807
796 796 796 796 796 796 796 796 796 796 796 796 795 795 795 794 794 794 794 794 794 795 795 795 795 795 795 796 796 796 797 798 799 801 802 803 804 805 805 806 806 806 806 807 808 809 809 809 809 808 807 806 805 805 805 805 805 805 806 806 806 806 806 806 806 806 806 806 806
796 795 795 795 795 795 795 795 795 795 795 794 794 793 793 793 793 792 793 793 793 794 795 795 795 795 795 795 795 795 796 796 797 798 799 800 801 801 802 804 804 805 805 806 806 807 807 807 807 806 805 804 803 804 804 804 804 804 804 804 804 805 805 805 805 805 805 805 805
795 795 794 794 794 794 794 794 794 794 794 793 793 792 792 792 792 792 792 792 793 793 794 794 795 795 795 795 795 795 794 795 796 796 797 798 798 799 799 800 801 802 802 803 804 805 805 805 805 804 803 802 802 803 803 803 803 803 803 803 803 803 803 804 804 804 804 804 804
794 793 793 793 793 793 793 793 793 793 793 792 792 792 791 792 792 792 792 792 792 792 793 794 794 795 795 795 795 795 795 794 794 795 795 796 796 797 798 798 799 800 801 802 802 803 803 803 803 802 801 800 801 801 801 802 802 802 802 802 802 802 802 802 802 802 802 802 802
792 792 792 792 792 792 792 792 792 792 791 791 791 791 791 791 791 791 791 791 791 792 792 793 793 794 794 794 795 795 795 795 794 794 794 794 795 795 796 796 798 799 800 801 801 802 802 803 802 801 800 799 799 799 800 800 800 800 800 801 801 801 801 801 801 801 801 801 801
792 792 791 791 791 791 791 791 791 791 790 790 790 790 790 790 790 790 791 791 791 791 791 791 792 792 792 793 793 793 794 794 794 794 794 794 795 795 795 795 796 798 799 799 800 801 801 802 801 801 799 798 798 798 798 798 798 799 799 799 799 800 800 800 800 800 800 800 800
791 791 791 791 790 790 790 790 789 789 789 789 789 789 789 789 789 789 789 790 790 790 790 790 790 790 790 791 791 791 792 792 793 794 794 794 795 795 795 796 796 797 797 798 799 799 800 801 801 801 800 799 797 796 796 796 796 797 797 798 798 798 799 799 798 798 798 798 798
790 790 790 790 790 789 789 789 788 788 788 787 787 787 787 787 787 788 788 788 788 788 788 788 788 788 789 789 789 789 790 790 791 792 792 793 794 795 795 795 796 796 796 796 797 798 799 799 800 800 800 799 797 796 795 794 794 795 796 796 796 797 797 797 797 797 797 797 797
789 789 788 788 788 788 788 788 787 787 786 786 786 786 786 786 786 786 786 786 786 786 786 786 786 786 787 787 787 788 788 788 789 790 791 791 792 793 793 794 794 794 794 794 795 796 797 798 799 799 799 799 798 796 794 793 793 793 794 794 795 796 796 796 796 796 796 796 796
788 787 787 787 787 786 786 786 786 786 786 785 785 785 785 785 785 785 785 785 785 785 785 784 785 785 785 785 786 786 786 787 787 788 789 789 790 791 791 791 792 792 792 792 793 794 795 796 797 798 799 798 797 796 794 792 791 792 792 793 793 794 794 795 794 794 794 794 795
787 786 786 786 786 785 785 785 785 785 784 784 784 784 783 783 783 783 783 783 783 783 783 783 783 783 783 784 784 784 785 785 786 786 787 788 788 789 789 790 790 790 791 791 792 793 794 795 796 797 797 797 796 795 793 791 791 791 791 791 792 792 793 793 793 793 793 793 793
786 786 785 785 785 784 784 784 783 783 783 783 782 782 782 782 782 782 782 782 782 782 782 781 782 782 782 782 782 783 783 784 784 785 786 786 786 787 787 788 788 789 789 790 791 791 792 793 794 795 796 796 795 794 793 791 790 789 789 790 790 791 791 791 791 791 791 791 792
785 785 784 784 784 783 783 783 782 782 782 781 781 781 781 781 781 781 781 781 781 781 781 781 781 781 781 781 781 782 782 783 783 784 784 785 785 786 786 786 787 788 788 789 790 791 791 792 793 793 794 794 794 793 792 791 789 789 788 789 789 789 790 790 790 790 790 790 790
784 784 783 783 782 782 782 781 781 781 781 781 780 780 780 780 780 780 780 780 780 780 780 780 780 780 781 781 781 781 781 782 782 782 783 783 784 784 785 785 786 786 787 788 789 790 790 791 791 792 792 792 792 791 791 790 788 788 787 787 788 788 788 788 788 788 788 788 788
783 783 782 782 781 781 781 780 780 780 780 780 779 779 779 779 779 779 779 779 779 779 779 779 780 780 780 780 780 780 781 781 781 781 782 782 783 783 784 784 785 786 786 787 788 788 789 789 790 790 791 791 791 790 790 789 788 787 786 786 786 786 786 786 786 786 786 786 786
782 782 781 781 781 780 780 779 779 778 778 778 778 778 778 777 777 777 778 778 778 778 778 779 779 779 779 779 779 779 780 780 780 781 781 781 781 782 782 783 784 784 785 786 786 787 787 788 788 789 789 789 789 789 788 787 786 786 786 785 785 785 785 785 785 785 785 785 785
782 781 781 780 780 779 778 778 777 777 777 776 776 776 776 776 776 776 776 777 777 777 777 778 778 778 778 778 778 778 779 779 779 779 780 780 780 781 781 782 782 783 783 784 785 785 786 786 787 788 788 788 788 787 787 786 785 785 784 784 784 784 783 783 783 783 783 783 783
781 781 780 779 778 778 777 777 776 776 775 775 775 775 775 775 775 775 775 775 776 776 776 776 777 777 777 777 777 777 777 778 778 778 778 779 779 779 780 781 781 781 782 782 783 784 784 785 786 786 786 787 786 786 786 785 784 783 783 783 782 782 782 781 781 781 781 781 782
781 780 779 778 777 776 776 775 775 775 774 774 774 774 774 774 774 774 774 774 775 775 775 775 775 775 776 776 776 776 776 776 776 776 777 777 778 778 778 779 779 780 780 781 781 782 783 784 784 785 785 785 785 785 784 783 783 782 782 781 781 781 780 780 780 780 780 780 781
780 779 778 777 776 775 775 774 774 773 773 773 772 772 772 772 772 772 772 773 773 773 774 774 774 774 774 775 775 775 775 775 775 775 775 776 776 777 777 777 778 778 779 780 780 781 782 782 783 783 784 784 784 783 783 782 781 781 781 780 780 779 779 778 778 779 779 779 780
779 778 777 776 775 774 774 773 773 772 772 771 771 771 771 771 771 771 771 771 772 772 772 772 772 773 773 773 773 773 774 774 774 774 774 775 775 775 775 776 776 777 777 778 779 780 781 781 782 782 782 782 782 781 781 781 780 780 779 779 778 778 777 777 777 778 778 779 779
778 777 776 775 774 773 773 772 771 771 770 770 770 770 770 770 770 770 770 770 770 770 771 771 771 771 771 771 772 772 772 772 773 773 773 773 774 774 774 775 775 775 776 777 778 779 779 780 781 781 781 781 780 780 779 779 778 778 777 777 777 776 776 776 776 777 777 777 778
777 776 775 774 773 772 771 771 770 770 770 769 769 769 768 768 768 768 768 769 769 769 769 770 770 770 770 770 770 771 771 771 771 772 772 772 773 773 773 774 774 775 775 776 777 777 778 779 779 779 779 779 779 778 777 777 776 776 775 775 775 775 775 775 775 776 776 776 777
776 775 774 773 772 771 770 770 769 769 768 768 768 767 767 767 767 767 767 767 768 768 768 768 768 768 768 769 769 769 770 770 770 771 771 771 772 772 772 773 773 774 774 775 775 776 776 777 777 777 777 777 777 776 775 775 775 774 774 774 774 774 774 774 774 775 775 775 775
775 774 773 771 770 770 769 768 768 767 767 767 766 766 766 765 765 765 765 765 766 766 766 766 767 767 767 767 767 768 769 769 769 770 770 770 770 771 771 771 772 772 773 774 774 775 775 775 775 775 775 775 775 774 774 773 773 773 772 772 772 772 772 773 773 774 774 774 775
774 773 771 770 769 768 767 767 766 766 765 765 765 765 765 764 764 763 763 764 764 764 765 765 765 765 765 765 766 766 767 767 768 768 769 769 769 769 770 770 770 771 771 772 772 773 773 773 773 773 773 773 773 772 772 771 771 771 771 771 771 771 771 771 772 772 772 773 773
773 771 770 769 768 767 766 765 765 764 764 763 763 763 762 762 762 762 762 762 762 763 763 763 763 763 764 764 765 765 765 766 766 766 767 767 767 768 768 769 769 770 770 770 770 771 771 771 771 771 771 771 771 770 770 770 770 770 770 770 770 770 770 770 770 771 771 771 772
771 770 769 768 767 765 765 764 763 762 762 761 761 760 760 760 760 760 760 760 760 760 760 760 761 761 761 762 762 763 763 764 764 764 765 765 766 766 767 767 767 768 768 768 769 769 769 769 769 769 769 769 769 769 768 768 768 768 768 768 768 768 769 769 769 770 770 770 770
770 769 768 767 765 764 763 762 761 761 760 759 759 758 758 758 758 758 758 758 758 758 758 758 759 759 759 760 760 760 761 761 762 762 763 763 764 765 765 765 765 765 766 766 766 766 767 767 767 767 767 767 767 767 767 767 767 767 767 767 767 767 767 767 768 768 768 769 769
769 768 767 765 764 763 762 761 760 759 758 757 756 756 756 756 756 755 755 756 756 756 756 756 757 757 757 758 758 759 759 759 760 760 760 761 762 762 762 763 763 763 764 764 764 764 764 765 765 765 765 765 765 765 765 765 765 765 765 765 765 766 766 766 767 767 767 767 768
768 767 766 764 763 762 761 760 759 758 757 755 755 754 753 753 753 753 754 754 754 754 754 754 755 755 755 755 756 756 757 757 757 758 758 759 759 760 760 760 761 761 762 762 762 762 762 762 763 763 763 763 763 763 764 764 764 764 764 764 764 765 765 765 765 765 766 766 766
767 765 765 763 761 760 759 758 758 756 755 754 753 752 751 751 751 751 751 752 752 752 751 752 752 752 752 752 753 753 754 755 755 755 756 756 757 757 758 758 758 759 760 760 760 760 760 760 760 761 761 761 761 762 762 762 762 762 762 763 763 763 764 764 764 764 765 765 765
765 764 763 761 760 759 758 757 756 755 754 752 751 750 750 750 749 749 749 750 750 749 749 749 749 749 749 750 750 751 751 752 753 753 753 754 754 755 755 756 756 757 757 757 758 758 758 758 759 759 760 760 760 760 760 760 760 761 761 761 761 762 762 762 763 763 763 763 764
763 762 761 760 759 757 756 755 754 753 752 751 750 749 749 748 747 747 747 747 747 747 746 746 746 746 747 748 748 749 749 750 750 751 751 751 752 752 753 754 754 755 755 755 755 756 756 756 757 757 758 758 758 758 758 759 759 759 760 760 760 760 761 761 761 762 762 762 763
761 760 759 758 757 755 754 753 752 751 750 749 748 748 747 746 745 745 745 745 745 744 744 744 744 744 745 746 746 747 747 747 748 748 749 749 750 750 751 751 752 752 753 753 753 754 754 754 755 755 756 756 756 756 757 757 757 757 758 758 758 759 759 760 760 760 761 761 762
759 758 757 756 755 754 753 751 750 748 748 747 746 745 745 745 744 744 743 743 742 742 742 742 742 742 743 744 744 744 745 745 745 746 746 747 748 748 748 749 749 750 750 751 751 751 752 752 753 754 754 754 754 755 755 755 755 756 756 756 757 757 758 758 759 759 760 760 760